Tracking 29892 objects as of 21-Nov-2024
HD Live streaming from Space Station
objects crossing your sky now

DELTA 1 DEB

Track DELTA 1 DEB now!
10-day predictions


NORAD ID: 7045
Int'l Code: 1973-086AM
Perigee: 1,511.9 km
Apogee: 1,634.5 km
Inclination: 102.6 °
Period: 117.4 minutes
Semi major axis: 7944 km
RCS: 0.1058 m2 (medium)
Launch date: November 6, 1973
Source: United States (US)
Launch site: AIR FORCE WESTERN TEST RANGE (AFWTR)

Note: This is SATELLITE DEBRIS
Your satellite tracking list
Your tracking list is empty




NASA's NSSDC Master Catalog

Two Line Element Set (TLE):
1 07045U 73086AM  24324.50068789 -.00000010  00000-0  32227-3 0  9999
2 07045 102.6166 327.9803 0077199 278.6324 235.8194 12.26103410277072
Source of the keplerian elements: AFSPC